Time,TemperatureF,DewpointF,PressureIn,WindDirection,WindDirectionDegrees,WindSpeedMPH,WindSpeedGustMPH,Humidity,HourlyPrecipIn,Conditions,Clouds,dailyrainin,SoftwareType,DateUTC
2013-01-24 09:54:00,65.8,60.0,30.16,SW,214,4.0,8.0,81,0.00,,,0.01,weatherlink.com 1.10,2013-01-24 15:54:00,
2013-01-24 10:09:00,67.3,60.0,30.16,SW,216,3.0,10.0,77,0.00,,,0.01,weatherlink.com 1.10,2013-01-24 16:09:00,
2013-01-24 10:25:00,68.2,60.0,30.16,SW,222,2.0,9.0,74,0.00,,,0.01,weatherlink.com 1.10,2013-01-24 16:25:00,
2013-01-24 10:39:00,68.7,59.0,30.16,SSW,196,5.0,12.0,72,0.00,,,0.01,weatherlink.com 1.10,2013-01-24 16:39:00,
2013-01-24 10:54:00,69.8,60.0,30.15,South,181,6.0,10.0,70,0.00,,,0.01,weatherlink.com 1.10,2013-01-24 16:54:00,
2013-01-24 11:09:00,70.6,60.0,30.15,SSW,197,6.0,10.0,68,0.00,,,0.01,weatherlink.com 1.10,2013-01-24 17:09:00,
2013-01-24 11:25:00,71.6,59.0,30.14,SSW,194,7.0,12.0,65,0.00,,,0.01,weatherlink.com 1.10,2013-01-24 17:25:00,
2013-01-24 11:40:00,73.2,59.0,30.14,SW,217,2.0,10.0,62,0.00,,,0.01,weatherlink.com 1.10,2013-01-24 17:40:00,
2013-01-24 11:55:00,74.3,58.0,30.13,SW,215,8.0,12.0,58,0.00,,,0.01,weatherlink.com 1.10,2013-01-24 17:55:00,
2013-01-24 12:10:00,74.7,59.0,30.12,SSW,210,6.0,11.0,59,0.00,,,0.01,weatherlink.com 1.10,2013-01-24 18:10:00,
2013-01-24 12:25:00,74.9,58.0,30.11,SSW,208,0.0,11.0,56,0.00,,,0.01,weatherlink.com 1.10,2013-01-24 18:25:00,
2013-01-24 12:40:00,75.9,59.0,30.10,SSW,197,1.0,10.0,56,0.00,,,0.01,weatherlink.com 1.10,2013-01-24 18:40:00,
2013-01-24 12:55:00,76.6,59.0,30.09,SSW,205,6.0,8.0,54,0.00,,,0.01,weatherlink.com 1.10,2013-01-24 18:55:00,
2013-01-24 13:10:00,77.2,58.0,30.08,SW,223,8.0,8.0,52,0.00,,,0.01,weatherlink.com 1.10,2013-01-24 19:10:00,
2013-01-24 13:25:00,77.8,59.0,30.07,SSW,192,5.0,7.0,52,0.00,,,0.01,weatherlink.com 1.10,2013-01-24 19:25:00,
2013-01-24 13:40:00,79.8,57.0,30.06,SSW,194,5.0,12.0,46,0.00,,,0.01,weatherlink.com 1.10,2013-01-24 19:40:00,
2013-01-24 13:55:00,80.9,57.0,30.05,SW,222,6.0,8.0,44,0.00,,,0.01,weatherlink.com 1.10,2013-01-24 19:55:00,
2013-01-24 14:10:00,81.0,56.0,30.04,SSW,211,4.0,9.0,43,0.00,,,0.01,weatherlink.com 1.10,2013-01-24 20:10:00,
2013-01-24 14:25:00,81.7,56.0,30.03,South,183,4.0,9.0,42,0.00,,,0.01,weatherlink.com 1.10,2013-01-24 20:25:00,
2013-01-24 14:40:00,82.4,55.0,30.02,SSW,192,6.0,10.0,39,0.00,,,0.01,weatherlink.com 1.10,2013-01-24 20:40:00,
2013-01-24 14:55:00,83.0,55.0,30.01,South,174,8.0,8.0,38,0.00,,,0.01,weatherlink.com 1.10,2013-01-24 20:55:00,
2013-01-24 15:10:00,84.1,52.0,30.00,SW,227,4.0,8.0,33,0.00,,,0.01,weatherlink.com 1.10,2013-01-24 21:10:00,
2013-01-24 15:25:00,84.6,51.0,30.00,SSW,196,4.0,9.0,31,0.00,,,0.01,weatherlink.com 1.10,2013-01-24 21:25:00,
2013-01-24 15:41:00,85.1,51.0,30.00,SW,223,4.0,7.0,31,0.00,,,0.01,weatherlink.com 1.10,2013-01-24 21:41:00,
2013-01-24 15:56:00,84.9,50.0,30.00,WSW,242,1.0,8.0,30,0.00,,,0.01,weatherlink.com 1.10,2013-01-24 21:56:00,
2013-01-24 16:11:00,84.2,50.0,29.99,SSW,212,2.0,11.0,31,0.00,,,0.01,weatherlink.com 1.10,2013-01-24 22:11:00,
2013-01-24 16:29:00,83.6,52.0,29.99,SSW,201,4.0,11.0,33,0.00,,,0.01,weatherlink.com 1.10,2013-01-24 22:29:00,
2013-01-24 16:41:00,82.7,54.0,29.99,SSW,200,5.0,13.0,37,0.00,,,0.01,weatherlink.com 1.10,2013-01-24 22:41:00,
2013-01-24 16:56:00,81.7,55.0,29.99,South,190,8.0,14.0,40,0.00,,,0.01,weatherlink.com 1.10,2013-01-24 22:56:00,
2013-01-24 17:11:00,80.6,55.0,29.99,South,182,8.0,12.0,42,0.00,,,0.01,weatherlink.com 1.10,2013-01-24 23:11:00,
2013-01-24 17:26:00,79.2,55.0,29.99,South,183,8.0,17.0,44,0.00,,,0.01,weatherlink.com 1.10,2013-01-24 23:26:00,
2013-01-24 17:41:00,77.6,56.0,29.99,SSE,156,6.0,11.0,47,0.00,,,0.01,weatherlink.com 1.10,2013-01-24 23:41:00,
2013-01-24 17:56:00,76.1,55.0,29.99,SSE,163,9.0,12.0,49,0.00,,,0.01,weatherlink.com 1.10,2013-01-24 23:56:00,
2013-01-24 18:11:00,74.9,55.0,30.00,SSW,200,7.0,11.0,51,0.00,,,0.01,weatherlink.com 1.10,2013-01-25 00:11:00,
2013-01-24 18:26:00,73.8,55.0,30.00,SSW,192,5.0,10.0,53,0.00,,,0.01,weatherlink.com 1.10,2013-01-25 00:26:00,
2013-01-24 18:41:00,72.8,55.0,30.00,SSW,192,5.0,13.0,54,0.00,,,0.01,weatherlink.com 1.10,2013-01-25 00:41:00,
2013-01-24 18:56:00,72.1,55.0,30.00,South,184,9.0,12.0,56,0.00,,,0.01,weatherlink.com 1.10,2013-01-25 00:56:00,
2013-01-24 19:11:00,71.6,55.0,30.01,South,188,6.0,11.0,57,0.00,,,0.01,weatherlink.com 1.10,2013-01-25 01:11:00,
2013-01-24 19:26:00,70.4,56.0,30.01,SSW,200,3.0,9.0,60,0.00,,,0.01,weatherlink.com 1.10,2013-01-25 01:26:00,
2013-01-24 19:41:00,69.6,56.0,30.02,South,191,5.0,13.0,62,0.00,,,0.01,weatherlink.com 1.10,2013-01-25 01:41:00,
2013-01-24 19:56:00,68.9,56.0,30.02,SSW,198,7.0,13.0,64,0.00,,,0.01,weatherlink.com 1.10,2013-01-25 01:56:00,
2013-01-24 20:11:00,68.2,56.0,30.02,SSW,196,7.0,14.0,66,0.00,,,0.01,weatherlink.com 1.10,2013-01-25 02:11:00,
2013-01-24 20:26:00,67.6,57.0,30.03,South,188,12.0,15.0,68,0.00,,,0.01,weatherlink.com 1.10,2013-01-25 02:26:00,
2013-01-24 20:41:00,67.0,57.0,30.03,SSW,207,8.0,13.0,70,0.00,,,0.01,weatherlink.com 1.10,2013-01-25 02:41:00,
2013-01-24 20:56:00,67.0,57.0,30.03,SSW,193,7.0,13.0,70,0.00,,,0.01,weatherlink.com 1.10,2013-01-25 02:56:00,
2013-01-24 21:11:00,66.8,57.0,30.03,South,184,7.0,11.0,71,0.00,,,0.01,weatherlink.com 1.10,2013-01-25 03:11:00,
2013-01-24 21:26:00,66.4,57.0,30.02,SSW,194,7.0,12.0,72,0.00,,,0.01,weatherlink.com 1.10,2013-01-25 03:26:00,
2013-01-24 21:41:00,65.9,57.0,30.02,SSW,197,7.0,10.0,73,0.00,,,0.01,weatherlink.com 1.10,2013-01-25 03:41:00,
2013-01-24 21:56:00,65.4,57.0,30.02,SSW,200,6.0,10.0,74,0.00,,,0.01,weatherlink.com 1.10,2013-01-25 03:56:00,
2013-01-24 22:11:00,65.4,57.0,30.02,SSW,196,5.0,9.0,74,0.00,,,0.01,weatherlink.com 1.10,2013-01-25 04:11:00,
2013-01-24 22:26:00,65.7,57.0,30.02,SSW,196,7.0,11.0,73,0.00,,,0.01,weatherlink.com 1.10,2013-01-25 04:26:00,
2013-01-24 22:41:00,66.0,57.0,30.02,SSW,196,4.0,8.0,73,0.00,,,0.01,weatherlink.com 1.10,2013-01-25 04:41:00,
2013-01-24 22:56:00,66.3,57.0,30.02,SSW,208,6.0,10.0,72,0.00,,,0.01,weatherlink.com 1.10,2013-01-25 04:56:00,
2013-01-24 23:11:00,66.4,57.0,30.02,SSW,198,8.0,10.0,71,0.00,,,0.01,weatherlink.com 1.10,2013-01-25 05:11:00,
2013-01-24 23:26:00,67.2,57.0,30.01,SSW,200,7.0,16.0,70,0.00,,,0.01,weatherlink.com 1.10,2013-01-25 05:26:00,
2013-01-24 23:41:00,67.1,57.0,30.02,SW,219,5.0,14.0,69,0.00,,,0.01,weatherlink.com 1.10,2013-01-25 05:41:00,
2013-01-24 23:56:00,67.0,56.0,30.01,SW,215,6.0,15.0,69,0.00,,,0.01,weatherlink.com 1.10,2013-01-25 05:56:00,